Content
SEND FEEDBACK

Daily
Averages
Monthly
Summary
Slovenia

AJDOVSCINA, SLOVENIA


Home > Europe > Slovenia
Elevation: 207 feet     Latitude: 45 54N     Longitude: 013 55E

WEATHER
 
SELECT A DAY
Number of Records: 137,306;   Date Range: 7/1/96 - 7/23/14
 
SHARE

PRINT THIS DATA

[ ← Previous Day ]
WEATHER ALMANAC - JANUARY 19, 2013
[ Next Day → ]
[ °C ]   °F
Weather ElementAverageHighLow
Temperature40.8 °F46.4 °F (2:55 pm)33.8 °F (2:55 am)
Dewpoint32 °F40 °F (7:00 pm)24 °F (1:00 am)
Humidity70 %93 % (8:55 pm)46 % (1:00 am)
Barometer29.56 in29.59 in (7:00 pm)29.53 in (3:55 am)
Wind Speed2.7 mph5.8 mph (11:55 pm)
Weather ElementAverage
Visibility6.9 mi
Wind DirectionENE (82.9 °)

Weather ElementTotal
Precipitation---
Heating Degree Days24.9 (Base 65)
Averaged from 25 records on January 19, 2013
WEATHER CONDITIONS BREAKOUT
WIND DIRECTION BREAKOUT
WEATHER BY HOUR - JANUARY 19, 2013
[ °C ]   °F
Local TimeTemperatureDewpointHumidityBarometerVisibilityWind DirectionWind SpeedGust SpeedPrecipitationEventsConditions
1:00 AM37.0 °F24.0 °F46 %29.56 in12.0 miENE (70°)3.5 mph
1:55 AM35.6 °F24.8 °F65 %29.56 inENE (60°)4.6 mphClear
2:55 AM33.8 °F24.8 °F70 %29.56 inENE (60°)3.5 mphClear
3:55 AM33.8 °F26.6 °F75 %29.53 inENE (60°)2.3 mphClear
4:55 AM33.8 °F26.6 °F75 %29.56 inENE (60°)3.5 mphClear
6:55 AM39.2 °F28.4 °F65 %29.53 inEast (90°)3.5 mphClear
7:00 AM39.0 °F28.0 °F52 %29.56 in12.0 miEast (90°)3.5 mph
7:55 AM37.4 °F26.6 °F65 %29.53 inEast (90°)3.5 mphClear
8:55 AM39.2 °F28.4 °F65 %29.56 inENE (70°)1.2 mphClear
9:55 AM41.0 °F28.4 °F61 %29.56 inESE (110°)1.2 mphClear
10:55 AM42.8 °F30.2 °F61 %29.56 in6.2 miSSE (150°)1.2 mphScattered Clouds
11:55 AM42.8 °F30.2 °F61 %29.56 in6.2 miSE (140°)1.2 mphPartly Cloudy
12:55 PM44.6 °F30.2 °F57 %29.56 in6.2 miCalmScattered Clouds
1:00 PM44.0 °F30.0 °F46 %29.57 in6.0 miCalmPartly Cloudy
1:55 PM44.6 °F32.0 °F61 %29.53 in6.2 miESE (110°)1.2 mphScattered Clouds
2:55 PM46.4 °F33.8 °F62 %29.53 in6.2 miCalmScattered Clouds
4:55 PM44.6 °F33.8 °F66 %29.56 in6.2 miESE (110°)3.5 mphScattered Clouds
5:55 PM44.6 °F37.4 °F76 %29.56 in6.2 miEast (90°)3.5 mphRainRain
6:55 PM44.6 °F39.2 °F81 %29.56 in6.2 miEast (90°)3.5 mphRainLight Rain
7:00 PM44.0 °F40.0 °F80 %29.59 in6.0 miEast (90°)3.5 mphRainLight Rain
7:55 PM42.8 °F39.2 °F87 %29.59 in6.2 miESE (110°)2.3 mphRainLight Rain
8:55 PM41.0 °F39.2 °F93 %29.59 in6.2 miEast (80°)3.5 mphRainLight Rain
9:55 PM41.0 °F39.2 °F93 %29.59 in6.2 miEast (100°)4.6 mphRainLight Rain
10:55 PM41.0 °F39.2 °F93 %29.59 in6.2 miEast (90°)3.5 mphRainLight Rain
11:55 PM41.0 °F39.2 °F93 %29.56 in6.2 miENE (70°)5.8 mphRainLight Rain
Hourly data recorded from LIVT, located miles away from Ajdovscina, Slovenia







STORIES FROM OUR PARTNERS